Beidou DW 33

operational
NORAD ID: 43581 Int'l Des: 2018-062 Owner: CNSA Country: CN Constellation: BeiDou
MEOCIRCULAR

Über Beidou DW 33

Beschreibung wird geladen...

Live-Position

3D-Globus wird geladen...

Nächste Überflüge

Höhenverlauf

Altitude vs Time

uPlot chart will show altitude changes over time

Zweizeiliger Elementsatz

1 43581U 18062A 25346.24654638 .00000079 00000-0 00000-0 0 9992
2 43581 54.0891 188.6597 0002102 354.1416 5.9159 1.86228672 50155
Epoch: 12. Dez. 2025 • Age: 124 hours

Aktueller Status

Höhe 21543.5 km
Geschwindigkeit 3.78 km/s
Subsatellitenpunkt -35.67°S, 163.66°E
Startdatum 29. Juli 2018
Alter 7.3 years
Typ navigation

Startgruppe

Unknown Vehicle • BeiDou Launch 30 • 2 satellites

Technische Details

Klassifizierung Payload
Masse 1014.00 kg
Trockenmasse 850.00 kg
Gesamtmasse 1014.00 kg
Länge 2.20 m
Durchmesser 1.70 m
Spannweite 10.00 m
Form Box + 2 Pan
Hersteller CAST
Bus-Typ BD-3M
Phasenstatus In Orbit
Besitzer/Staat CNSA/CN

Große Konstellationen

Loading constellations...